Weather in Dolisie

Congo     4°11′57″S   12°40′06″E
temp.,
°C
wind,
m/s
gust,
m/s
humid.,
%
clouds,
%
prec.,
mm/h
press.,
hPa
HPBL,
m
1 march, mon
mon101:00+22sw249878 0.9 1008138
04:00+22sw239877 1.1 1007106
07:00+23sw249777 2.2 1009196
10:00+28ssw237619 0.9 1010495
13:00+30ssw226835 4.9 1007937
16:00+29s237690 1.8 1004767
19:00+24sw389295 6.3 1007220
22:00+23sw3796100 2.6 1010235
2 march, tue
tue201:00+22sw2698100 2.7 1009296
04:00+22wsw1298100 0.0 100995
07:00+23ssw2597100 0.0 1010294
10:00+27sw2478100 0.0 1011600
13:00+31ssw236084 0.0 10081305
16:00+30s346571 0.4 10061240
19:00+24sw279386 5.1 1007188
22:00+23wsw2697100 0.1 1010259
3 march, wed
wed301:00+23sw2298100 0.1 100987
04:00+22sw1198100 0.0 100833
07:00+23ssw119699 0.0 101065
10:00+28ssw127599 0.0 1010663
13:00+31ssw226099 0.0 10071312
16:00+31sw3461100 0.0 10051323
19:00+25wsw388985 0.1 1007376
22:00+23wsw379473 1.1 1010387
4 march, thu
thu401:00+23wsw249686 1.3 1009225
04:00+22sw1396100 0.4 1008177
07:00+22ssw2397100 2.3 1010169
10:00+27sw2476100 0.0 1010603
13:00+30sw346297 0.2 10081229
16:00+27wsw3684100 5.3 1006724
19:00+24wsw3893100 7.5 1008431
22:00+22sw2896100 0.0 1010378
5 march, fri
fri501:00+22ssw1396100 0.0 1010177
04:00+22sw1296100 0.0 1009126
07:00+23s1194100 0.0 101162
10:00+27sw2375100 0.9 1012639
13:00+24e2592100 6.9 1011175
16:00+24se1191100 1.1 100952
19:00+22ssw1291100 1.1 100925
22:00+22w1190100 0.0 101024